Wind_Speed
32 34 36 36 44 36 43 35 47 46 44 43 42 41 39 38 37 34 32 29 27 24 22 18 16 15 12 10 24 17 16 13 11 9 7 9 13 14 16 14 20 21 22 26 28 25 23
30 32 33 33 34 47 42 40 32 50 45 45 42 42 40 39 38 36 33 30 27 25 22 18 16 14 12 18 11 13 14 11 10 10 12 13 14 16 21 23 20 26 28 25 22 25 24
29 29 29 28 33 36 47 40 32 23 42 46 45 43 42 40 38 36 33 31 28 25 22 18 16 15 16 27 7 10 13 13 10 11 12 12 12 13 10 13 12 18 18 19 22 27 23
29 29 27 28 27 32 37 49 46 46 33 38 47 44 43 42 39 36 34 31 28 25 22 18 16 14 16 16 21 27 23 17 15 14 13 10 6 9 13 15 20 17 20 19 21 22 24
26 26 28 28 31 28 29 32 39 50 48 27 44 46 43 43 40 37 34 30 27 24 21 16 12 11 19 12 25 30 22 27 20 17 15 14 13 20 14 14 14 15 18 21 21 14 13
24 26 27 27 30 30 31 31 34 45 45 42 31 48 46 43 42 38 34 31 26 19 15 11 11 6 22 20 20 20 22 25 22 14 12 15 11 10 14 14 15 17 20 19 18 16 10
25 23 24 26 27 29 33 32 36 38 43 46 39 41 44 45 44 42 40 31 17 8 19 19 15 25 7 10 9 14 16 19 21 18 16 20 13 18 21 21 23 22 21 22 20 18 18
25 24 24 25 26 26 28 31 33 30 40 45 46 35 49 46 47 49 47 45 39 6 11 38 33 28 26 11 15 17 19 20 24 17 19 13 19 20 22 19 21 18 20 21 22 19 18
27 28 23 25 25 26 24 25 29 35 30 39 44 41 31 52 51 53 59 53 19 21 7 16 38 45 33 24 20 22 28 29 20 21 21 21 16 23 20 18 18 20 21 19 21 21 19
27 27 29 27 26 25 26 25 29 32 36 30 34 45 39 52 51 57 56 42 18 17 5 12 25 16 38 30 31 32 32 24 14 22 20 20 22 20 14 17 17 21 17 19 19 15 14
26 27 28 29 29 28 31 28 26 30 35 25 32 37 52 41 41 57 46 40 32 22 6 9 30 14 25 39 13 33 34 33 22 22 16 20 15 16 21 26 18 19 15 15 16 16 17
28 28 28 28 26 28 31 32 29 28 32 45 33 36 34 41 54 53 49 47 33 8 12 7 12 23 22 37 37 8 34 35 29 20 24 24 20 20 25 18 21 21 20 16 14 11 13
28 31 29 29 28 29 32 33 30 30 31 37 38 32 39 53 60 52 54 44 9 17 8 11 14 18 28 28 29 25 28 29 22 16 25 24 27 25 26 15 17 10 11 6 8 8 10
27 27 27 28 30 32 33 34 32 33 32 37 40 28 37 48 48 55 62 17 12 14 30 10 20 21 27 27 31 30 25 27 27 24 12 20 21 30 22 24 18 19 18 8 9 11 14
29 30 32 33 32 33 34 37 35 36 33 34 39 41 34 42 49 61 45 21 14 21 28 15 22 25 26 27 14 27 31 25 29 27 20 15 20 16 22 16 21 18 22 17 17 16 10
30 30 32 33 35 36 38 40 36 38 35 33 34 33 39 44 59 60 22 16 15 23 19 29 18 21 25 30 25 25 25 23 28 31 28 13 10 8 11 18 21 24 10 15 6 5 8
31 32 33 33 36 38 41 42 39 38 36 33 32 16 34 41 42 49 22 14 9 32 22 32 29 20 25 24 29 30 22 15 32 27 27 9 3 11 13 14 16 8 6 5 7 7 4
33 34 33 35 36 41 44 44 42 36 36 35 39 11 20 44 14 12 21 11 14 18 36 4 16 24 20 25 28 24 30 24 31 23 31 6 4 8 20 4 9 16 11 7 4 5 1
34 33 32 34 40 45 48 46 34 27 32 40 22 33 25 51 15 9 4 5 8 14 14 10 9 16 22 21 13 25 22 8 6 15 17 12 9 6 3 6 12 11 9 6 7 2 7
31 29 32 34 42 50 42 25 24 30 22 35 19 9 11 36 37 12 13 11 6 8 10 7 7 8 11 3 5 9 6 7 10 8 8 7 6 10 10 5 10 15 13 11 7 4 6
27 27 28 36 41 28 23 29 31 32 30 31 20 6 13 9 13 17 19 18 14 7 4 10 7 19 14 5 4 7 10 11 6 2 5 3 5 6 6 8 7 12 14 16 15 14 9
25 24 28 33 34 22 24 25 29 37 43 37 10 6 12 16 18 19 20 17 25 10 12 13 10 17 19 13 11 18 14 13 6 8 7 3 4 4 4 8 8 10 14 16 19 20 22
23 23 25 30 29 27 23 34 39 53 56 34 33 27 26 21 17 15 12 16 24 21 3 16 17 13 9 9 12 19 15 13 15 10 5 5 6 4 4 11 11 11 16 20 19 20 18
21 21 20 25 25 26 23 27 26 18 81 69 54 34 8 9 16 16 21 23 22 22 11 13 25 12 14 45 36 25 22 17 16 11 8 12 10 5 5 9 8 7 3 12 18 19 17
17 17 15 21 21 21 18 22 11 22 34 45 39 36 10 8 15 14 23 17 17 19 12 16 12 25 39 38 10 8 4 4 8 12 14 13 6 5 5 10 5 7 11 11 9 11 11
16 13 11 16 20 19 19 19 21 21 27 37 32 30 24 10 7 34 24 29 21 15 5 10 37 40 24 4 4 6 5 7 7 11 13 10 9 3 7 5 7 8 9 9 5 5 8
13 8 6 11 17 19 18 22 25 20 21 29 22 25 30 8 29 32 14 16 14 11 11 7 12 11 7 3 3 4 5 10 11 13 14 10 8 10 8 7 6 5 10 13 4 2 3
10 3 4 8 13 17 16 22 22 26 26 33 26 27 29 19 14 25 26 25 23 22 12 18 9 3 4 3 2 2 6 6 8 15 16 11 10 6 7 8 12 7 9 12 7 8 5
5 3 6 8 13 14 14 20 24 24 32 35 36 32 36 34 29 33 27 25 27 23 46 21 8 9 7 4 3 2 5 2 10 8 16 9 7 7 8 5 6 5 4 4 8 14 15
Wind_Direction
286 284 285 270 251 245 245 246 257 250 245 246 244 242 241 239 238 238 240 243 245 250 254 258 264 272 272 247 250 275 272 268 275 255 248 256 265 276 270 275 279 273 270 276 278 279 278
286 291 285 279 268 250 243 248 252 253 249 243 243 243 239 238 238 237 238 240 243 246 252 255 261 260 258 254 244 258 254 260 264 241 248 255 260 267 279 279 276 282 289 285 290 285 278
289 292 286 277 273 272 250 251 243 235 244 247 241 241 238 236 236 236 235 237 240 243 247 251 254 254 250 239 225 228 234 240 234 246 250 260 261 258 269 266 289 289 291 286 275 269 267
286 289 290 279 275 269 261 251 252 256 253 243 243 239 240 235 233 233 233 233 236 240 243 244 246 248 255 254 251 256 242 263 246 238 241 247 245 261 266 276 287 277 274 271 272 263 254
289 290 285 284 275 276 272 259 260 259 260 243 245 242 235 235 231 229 228 229 231 234 239 231 234 239 265 265 232 237 230 235 240 240 242 247 244 244 254 249 261 248 256 266 281 275 212
291 288 288 286 280 273 271 264 266 254 258 255 245 246 236 232 228 223 220 218 218 229 218 219 220 272 249 242 237 234 233 223 225 228 222 222 217 229 218 237 239 250 243 246 251 257 268
284 288 290 291 289 285 274 263 251 262 258 256 253 253 242 228 223 216 204 192 188 204 198 200 202 207 199 292 183 207 199 197 205 208 210 198 208 224 228 225 246 262 271 279 290 303 299
299 296 282 290 294 294 286 271 259 263 253 256 250 246 244 237 218 215 209 194 197 207 212 229 234 232 246 264 211 220 186 180 191 206 208 194 222 230 232 241 238 246 259 264 267 278 274
289 293 298 293 293 300 299 284 271 254 265 248 245 236 236 240 219 211 210 207 202 206 265 226 222 228 223 225 228 216 192 201 194 208 210 224 222 222 236 250 245 243 253 270 283 287 291
290 286 287 289 291 296 301 293 274 261 248 247 243 239 233 225 200 208 207 199 189 186 253 244 216 240 222 223 233 231 200 200 224 219 226 244 232 237 217 233 261 250 250 256 267 288 281
291 290 289 288 287 289 292 292 286 265 250 254 251 230 235 217 198 197 204 186 192 147 235 196 215 188 195 200 139 211 215 206 222 220 212 218 213 239 250 250 222 259 266 267 283 282 286
290 289 289 287 286 290 293 296 285 283 253 243 248 245 226 227 219 214 191 181 171 170 215 232 198 202 187 202 213 205 203 207 220 246 228 236 240 247 256 247 251 243 245 259 268 273 262
290 290 288 291 287 288 290 293 282 280 264 241 239 242 217 221 206 197 179 165 189 199 157 210 196 191 199 195 206 214 193 202 203 208 230 233 231 236 242 239 244 217 214 228 224 217 248
292 295 292 289 287 287 288 286 284 283 274 247 243 241 229 210 202 184 169 176 199 175 202 161 180 192 195 189 206 205 208 208 202 214 223 219 237 224 218 219 218 207 206 198 223 225 253
294 293 291 289 288 289 284 286 279 282 270 253 246 243 242 220 200 183 173 198 183 192 209 211 178 185 198 203 188 205 210 214 206 212 213 216 229 220 210 199 221 206 219 223 271 284 286
296 294 292 291 288 289 287 286 277 278 261 250 247 251 241 211 204 179 187 194 193 205 189 203 196 198 189 198 199 197 191 215 215 208 225 244 240 217 157 173 216 235 249 210 217 192 224
299 297 295 294 291 289 289 285 281 272 254 246 241 237 233 220 213 192 200 191 187 208 218 191 214 192 201 195 197 194 198 213 199 199 211 196 229 177 160 205 194 184 231 182 209 225 245
303 299 299 297 293 290 290 287 281 266 252 232 210 219 209 202 200 208 202 167 177 192 211 278 223 216 211 202 197 206 207 203 190 203 194 125 143 190 194 185 264 210 204 162 189 200 208
306 301 300 300 297 296 293 286 265 240 233 191 190 209 212 189 210 203 219 119 166 167 184 171 178 227 223 226 219 206 191 12 128 154 167 155 156 130 175 327 268 212 213 124 102 77 207
308 306 305 304 304 304 300 252 230 211 217 189 180 192 204 197 204 194 175 169 132 188 158 168 161 211 189 68 91 171 136 174 173 153 87 166 163 201 193 117 163 205 209 194 141 191 230
313 312 311 311 313 313 299 265 245 239 224 217 186 185 194 173 184 181 180 164 146 141 125 161 181 195 166 130 121 161 139 143 110 71 108 105 146 159 114 178 190 199 205 202 203 219 225
321 322 319 319 328 315 309 304 264 250 234 224 191 147 194 172 148 171 173 182 167 140 153 185 188 194 187 173 183 167 147 159 150 144 105 53 108 103 168 215 229 243 240 222 222 224 228
325 325 326 323 335 314 320 321 288 255 221 190 198 181 177 162 164 167 177 163 180 148 30 192 168 151 167 166 113 120 98 87 132 135 122 118 129 133 168 213 231 254 233 238 242 245 251
327 327 332 332 343 332 337 339 357 200 181 177 182 172 147 162 166 171 165 164 168 182 129 157 149 129 129 116 96 78 74 103 125 132 138 139 141 162 165 148 215 240 198 219 235 244 244
328 330 338 342 350 349 358 11 43 89 136 151 158 164 135 144 163 150 155 137 137 117 122 130 144 142 130 117 100 95 70 91 163 176 174 156 165 152 174 195 276 178 179 203 208 237 249
331 333 348 357 7 2 19 36 54 107 106 147 153 163 138 119 179 147 142 144 133 124 100 114 127 138 127 95 115 141 161 148 154 168 188 178 190 202 183 206 223 126 99 61 37 249 237
335 337 5 18 21 21 36 62 80 85 115 137 124 151 137 105 139 139 140 134 134 120 119 122 137 145 122 113 123 148 135 140 156 166 180 186 189 206 209 213 240 217 140 132 173 171 32
343 352 49 41 37 38 46 62 75 84 107 118 96 123 133 108 103 124 132 127 127 134 138 143 121 153 151 134 118 137 141 168 158 166 168 174 172 190 216 219 241 200 203 206 223 272 276
347 113 101 65 52 54 58 71 66 75 91 109 93 106 115 89 102 105 110 125 135 143 130 159 119 142 157 179 174 118 119 127 150 156 167 192 198 172 189 191 123 142 232 252 272 271 269
Height
1430 1428 1427 1427 1427 1429 1434 1436 1440 1444 1449 1454 1458 1463 1467 1472 1476 1480 1483 1486 1489 1491 1494 1496 1497 1496 1498 1497 1490 1489 1490 1490 1491 1492 1494 1496 1496 1494 1490 1487 1484 1480 1476 1475 1474 1474 1474
1423 1420 1419 1418 1419 1419 1421 1425 1430 1434 1439 1445 1449 1455 1459 1465 1469 1475 1479 1482 1485 1487 1490 1492 1493 1493 1495 1493 1488 1485 1487 1488 1488 1491 1491 1494 1494 1493 1490 1487 1485 1481 1476 1472 1473 1474 1473
1416 1414 1412 1411 1410 1409 1410 1415 1418 1422 1427 1432 1440 1446 1451 1456 1463 1469 1473 1477 1480 1482 1486 1488 1489 1490 1488 1482 1484 1485 1485 1486 1488 1489 1489 1490 1490 1490 1487 1483 1482 1479 1477 1474 1472 1470 1467
1410 1408 1406 1405 1404 1404 1405 1405 1411 1412 1419 1420 1428 1436 1443 1449 1455 1462 1468 1472 1475 1479 1481 1484 1485 1487 1477 1477 1477 1478 1481 1481 1483 1485 1486 1487 1488 1490 1488 1486 1482 1482 1478 1476 1463 1458 1456
1404 1402 1400 1399 1397 1396 1395 1396 1397 1402 1407 1412 1417 1425 1434 1442 1448 1456 1462 1467 1471 1474 1478 1480 1482 1484 1475 1471 1467 1469 1475 1477 1481 1482 1483 1485 1487 1487 1488 1485 1483 1477 1478 1468 1458 1445 1450
1399 1396 1394 1393 1391 1390 1390 1389 1391 1394 1397 1400 1407 1414 1423 1433 1441 1449 1456 1462 1465 1470 1475 1478 1479 1484 1470 1459 1461 1462 1467 1470 1475 1478 1481 1482 1483 1480 1480 1479 1479 1470 1463 1455 1455 1446 1441
1392 1390 1388 1386 1384 1383 1384 1384 1386 1386 1390 1392 1392 1405 1411 1419 1432 1439 1446 1458 1465 1468 1467 1461 1458 1455 1451 1457 1459 1458 1461 1465 1472 1474 1473 1474 1477 1473 1466 1464 1464 1460 1458 1456 1447 1443 1447
1386 1383 1382 1381 1379 1376 1374 1374 1375 1376 1379 1381 1387 1397 1399 1406 1418 1426 1434 1435 1437 1449 1455 1453 1452 1452 1452 1454 1455 1457 1457 1461 1463 1462 1466 1465 1463 1459 1455 1454 1454 1456 1459 1458 1450 1445 1446
1380 1378 1375 1373 1371 1369 1366 1365 1366 1368 1369 1375 1381 1389 1389 1397 1404 1416 1413 1422 1440 1446 1446 1439 1438 1438 1447 1451 1448 1448 1452 1452 1452 1456 1453 1452 1446 1446 1450 1450 1451 1449 1452 1452 1454 1447 1442
1373 1371 1368 1366 1365 1363 1360 1359 1359 1361 1364 1368 1371 1375 1388 1392 1396 1402 1407 1429 1441 1444 1448 1427 1425 1423 1434 1444 1437 1444 1444 1449 1449 1446 1448 1443 1441 1439 1443 1447 1448 1449 1445 1447 1448 1450 1457
1366 1363 1361 1360 1358 1356 1355 1354 1353 1354 1357 1359 1362 1369 1377 1384 1383 1390 1409 1425 1434 1439 1448 1402 1403 1413 1414 1419 1421 1427 1433 1440 1439 1439 1439 1433 1436 1441 1442 1441 1445 1446 1445 1446 1448 1450 1450
1359 1357 1355 1353 1351 1349 1348 1347 1347 1346 1348 1352 1356 1360 1366 1371 1379 1385 1398 1414 1425 1431 1424 1399 1393 1392 1403 1409 1414 1418 1426 1434 1437 1437 1431 1433 1437 1437 1437 1435 1436 1439 1443 1445 1448 1456 1456
1351 1349 1347 1345 1343 1342 1341 1340 1339 1340 1340 1344 1347 1351 1356 1361 1363 1373 1381 1398 1405 1397 1392 1378 1381 1387 1394 1396 1410 1416 1416 1421 1426 1442 1431 1432 1427 1429 1428 1436 1434 1436 1446 1465 1468 1466 1448
1344 1342 1339 1337 1335 1334 1333 1331 1331 1331 1332 1336 1337 1343 1345 1351 1358 1360 1367 1383 1375 1380 1372 1355 1372 1382 1384 1389 1399 1406 1405 1407 1413 1415 1417 1428 1432 1421 1419 1426 1432 1436 1438 1446 1458 1447 1428
1336 1333 1331 1328 1326 1324 1323 1322 1322 1323 1324 1327 1332 1332 1336 1341 1350 1349 1357 1352 1346 1355 1354 1356 1365 1375 1381 1381 1386 1399 1392 1397 1395 1409 1414 1407 1408 1396 1406 1417 1426 1426 1431 1429 1436 1434 1441
1327 1324 1321 1318 1315 1313 1311 1310 1310 1311 1315 1321 1324 1327 1323 1335 1340 1339 1337 1335 1350 1344 1342 1362 1358 1356 1365 1370 1380 1382 1387 1383 1390 1395 1401 1398 1406 1399 1405 1414 1421 1421 1420 1438 1443 1461 1456
1318 1314 1311 1308 1304 1302 1299 1297 1297 1298 1303 1313 1320 1320 1311 1325 1329 1320 1312 1330 1342 1343 1343 1349 1345 1350 1351 1357 1360 1363 1363 1369 1375 1380 1394 1398 1405 1411 1412 1415 1416 1423 1428 1424 1436 1439 1443
1308 1304 1300 1296 1292 1288 1284 1281 1280 1282 1287 1298 1304 1305 1302 1313 1313 1306 1309 1321 1331 1339 1345 1349 1345 1343 1344 1347 1350 1353 1360 1363 1362 1368 1381 1396 1411 1421 1412 1415 1415 1414 1424 1432 1448 1453 1451
1299 1294 1290 1285 1280 1273 1267 1262 1262 1266 1270 1275 1286 1293 1297 1296 1294 1302 1310 1320 1325 1334 1340 1348 1349 1348 1344 1349 1355 1354 1355 1372 1368 1372 1383 1392 1413 1429 1438 1441 1425 1422 1422 1427 1450 1458 1447
1290 1286 1281 1276 1269 1258 1248 1244 1247 1253 1260 1268 1278 1280 1283 1281 1289 1299 1305 1314 1326 1329 1335 1339 1345 1348 1349 1363 1360 1365 1376 1382 1381 1384 1390 1391 1400 1403 1405 1409 1416 1424 1424 1428 1444 1449 1442
1284 1278 1273 1266 1258 1245 1237 1235 1238 1243 1250 1260 1256 1258 1257 1262 1275 1287 1295 1304 1313 1326 1331 1338 1347 1340 1347 1369 1375 1377 1381 1383 1389 1394 1395 1400 1410 1418 1427 1419 1417 1416 1419 1425 1432 1439 1442
1277 1272 1267 1259 1248 1238 1227 1221 1220 1219 1230 1243 1241 1245 1254 1256 1273 1283 1287 1295 1297 1314 1321 1329 1329 1336 1336 1347 1348 1362 1371 1381 1387 1396 1401 1407 1416 1423 1430 1422 1420 1421 1418 1417 1420 1422 1427
1272 1267 1261 1253 1240 1229 1217 1203 1185 1177 1199 1210 1225 1235 1242 1243 1262 1272 1276 1286 1289 1302 1318 1318 1323 1332 1343 1349 1354 1366 1372 1378 1385 1394 1403 1412 1420 1427 1430 1429 1426 1426 1418 1416 1415 1414 1416
1268 1263 1258 1250 1236 1223 1209 1190 1151 1105 1143 1169 1203 1219 1235 1242 1251 1261 1274 1282 1291 1296 1311 1322 1327 1333 1344 1349 1361 1372 1379 1386 1391 1398 1402 1413 1419 1421 1420 1417 1436 1408 1400 1405 1409 1409 1409
1265 1260 1255 1249 1236 1223 1210 1191 1172 1161 1171 1187 1207 1217 1227 1246 1251 1263 1272 1284 1297 1307 1318 1319 1330 1336 1340 1348 1365 1377 1389 1395 1399 1400 1401 1407 1411 1415 1420 1418 1405 1400 1403 1406 1408 1410 1408
1262 1258 1254 1249 1239 1228 1217 1205 1193 1186 1190 1198 1207 1217 1226 1243 1256 1258 1267 1277 1290 1306 1321 1326 1335 1338 1342 1350 1360 1369 1382 1390 1398 1402 1399 1401 1406 1407 1410 1413 1407 1395 1398 1405 1410 1416 1408
1260 1257 1254 1251 1244 1235 1225 1217 1211 1207 1205 1208 1215 1220 1223 1243 1263 1264 1269 1276 1292 1301 1316 1326 1335 1344 1345 1349 1356 1364 1373 1370 1388 1391 1398 1403 1406 1407 1404 1405 1397 1390 1397 1405 1419 1418 1408
1258 1256 1255 1253 1249 1243 1235 1229 1223 1219 1218 1216 1220 1224 1224 1244 1263 1269 1273 1279 1294 1297 1304 1328 1335 1344 1347 1353 1354 1353 1355 1362 1368 1373 1382 1393 1400 1403 1403 1402 1403 1389 1395 1404 1405 1406 1409
1258 1257 1257 1256 1254 1250 1245 1240 1235 1231 1228 1227 1228 1235 1238 1245 1267 1276 1282 1289 1293 1299 1301 1326 1326 1331 1340 1347 1346 1347 1349 1357 1360 1371 1378 1386 1379 1382 1386 1384 1387 1390 1394 1398 1403 1405 1406